Rawlins, WY

4:57 PM MST on January 19, 2018 (GMT -0700)
Rawlins Municipal

Weather History for KRWL - July, 2013

Change the Weather History Date:

Friday, July 26, 2013

  Actual Average Record
Temperature  
Mean Temperature 68 °F 68 °F  
Max Temperature 86 °F 85 °F 97 °F (2000)
Min Temperature 49 °F 52 °F 43 °F (1973)
Degree Days  
Heating Degree Days 0 1  
Month to date heating degree days 0 33  
Since 1 June heating degree days 101 223  
Since 1 July heating degree days 0 33  
Cooling Degree Days 3 4  
Month to date cooling degree days 141 82  
Year to date cooling degree days 189 101  
Since 1 June cooling degree days 188 101  
Growing Degree Days 17 (Base 50)    
Moisture  
Dew Point 43 °F    
Average Humidity 56    
Maximum Humidity 96    
Minimum Humidity 15    
Precipitation  
Precipitation 0.01 in 0.03 in 0.28 in (1981)
Month to date precipitation 1.10 0.69  
Year to date precipitation 3.20 5.64  
Sea Level Pressure  
Sea Level Pressure 30.09 in    
Wind  
Wind Speed 6 mph (North)    
Max Wind Speed 37 mph    
Max Gust Speed 45 mph    
Visibility 10 miles    
Events Rain    
T = Trace of Precipitation, MM = Missing Value Source: NWS Daily Summary

Daily Weather History Graph

Daily Weather History Graph

Search for Another Location

Airport or City:

Trip Planner

Search our weather history database for the weather conditions in past years. The results will help you decide how hot, cold, wet, or windy it might be!

Date:

Astronomy

Jul. 26, 2013 Rise Set
Actual Time 5:57 AM MDT 8:32 PM MDT
Civil Twilight 5:25 AM MDT 9:04 PM MDT
Nautical Twilight 4:45 AM MDT 9:44 PM MDT
Astronomical Twilight 3:59 AM MDT 10:29 PM MDT
Moon 10:42 PM MDT (7/26) 10:41 AM MDT (7/26)
Length of Visible Light 15h 39m
Length of Day
14h 35m
Waning Gibbous, 79% of the Moon is Illuminated
Jul 26
Waning Gibbous
Jul 29
Last Quarter
Aug 6
New
Aug 14
First Quarter
Aug 20
Full

Hourly Weather History & Observations

Time (MDT) Temp. Dew Point Humidity Pressure Visibility Wind Dir Wind Speed Gust Speed Precip Events Conditions
12:53 AM 54.0 °F 51.1 °F 90% 30.13 in 10.0 mi ESE 4.6 mph - N/A   Clear
1:53 AM 54.0 °F 48.9 °F 83% 30.12 in 10.0 mi East 3.5 mph - N/A   Clear
2:53 AM 53.1 °F 50.0 °F 89% 30.11 in 10.0 mi ENE 4.6 mph - N/A   Clear
3:53 AM 52.0 °F 50.0 °F 93% 30.11 in 10.0 mi NW 3.5 mph - N/A   Clear
4:53 AM 52.0 °F 48.9 °F 89% 30.10 in 10.0 mi Calm Calm - 0.01 in   Clear
5:53 AM 50.0 °F 48.0 °F 93% 30.19 in 10.0 mi Calm Calm - N/A   Clear
6:53 AM 52.0 °F 48.9 °F 89% 30.21 in 10.0 mi North 3.5 mph - N/A   Clear
7:53 AM 55.0 °F 51.1 °F 86% 30.20 in 10.0 mi Calm Calm - N/A   Clear
8:53 AM 60.1 °F 50.0 °F 69% 30.19 in 10.0 mi Calm Calm - N/A   Clear
9:53 AM 64.0 °F 52.0 °F 65% 30.19 in 10.0 mi ENE 3.5 mph - N/A   Clear
10:53 AM 69.1 °F 50.0 °F 51% 30.16 in 10.0 mi Calm Calm - N/A   Clear
11:53 AM 73.9 °F 45.0 °F 35% 30.13 in 10.0 mi Calm Calm - N/A   Clear
12:53 PM 80.1 °F 39.9 °F 24% 30.09 in 10.0 mi NNW 8.1 mph - N/A   Clear
1:53 PM 79.0 °F 37.0 °F 22% 30.06 in 10.0 mi NNW 8.1 mph - N/A   Scattered Clouds
2:53 PM 82.9 °F 34.0 °F 17% 30.04 in 10.0 mi NW 12.7 mph 20.7 mph N/A   Mostly Cloudy
3:53 PM 84.9 °F 32.0 °F 15% 30.01 in 10.0 mi North 10.4 mph - N/A   Partly Cloudy
4:53 PM 84.0 °F 32.0 °F 15% 30.01 in 10.0 mi West 9.2 mph 16.1 mph N/A   Partly Cloudy
5:53 PM 80.1 °F 32.0 °F 17% 30.01 in 10.0 mi WSW 6.9 mph 18.4 mph N/A   Clear
6:53 PM 78.1 °F 37.0 °F 23% 30.00 in 10.0 mi SSW 11.5 mph - N/A   Clear
7:53 PM 75.9 °F 34.0 °F 22% 30.00 in 10.0 mi NNE 8.1 mph - N/A   Mostly Cloudy
8:53 PM 75.9 °F 34.0 °F 22% 30.01 in 10.0 mi West 33.4 mph 43.7 mph 0.00 in Rain Light Rain
9:09 PM 73.4 °F 35.6 °F 25% 30.27 in 10.0 mi NNE 18.4 mph 40.3 mph 0.00 in Rain Light Rain
9:53 PM 69.1 °F 37.9 °F 32% 30.00 in 10.0 mi ENE 11.5 mph - 0.00 in   Clear
10:53 PM 63.0 °F 41.0 °F 45% 30.01 in 10.0 mi Variable 3.5 mph - N/A   Clear
11:53 PM 62.1 °F 43.0 °F 50% 29.99 in 10.0 mi SW 4.6 mph - N/A   Clear